Location: Newark
(30.3369°N, 81.6614°W)
Time: 19:26:34
(UTC+00:00)

N. Korean satellite - Pass Details

Date: 05 October 2020
Orbit: 452 x 505 km, 97.2° (Epoch: 28 October)

Event Time Altitude Azimuth Distance (km) Brightness Sun altitude
Rises 10:25:13 0° 22° (NNE) 2,526 10.5 -13.2°
Reaches altitude 10° 10:27:27 10° 32° (NNE) 1,635 9.7 -12.8°
Maximum altitude 10:30:38 32° 98° (E) 814 8.5 -12.1°
Drops below altitude 10° 10:33:45 10° 163° (SSE) 1,600 9.4 -11.4°
Sets 10:35:54 0° 174° (S) 2,463 10.2 -10.9°
